カタログに戻る

CZ-6A DEB

運用中PO
NORAD 54576·DEBRIS·🇨🇳 China

打ち上げ Nov 11, 2022 から Taiyuan Satellite Launch Center

Loading…

次のパス (今後24時間)

TLE

最新Source: Space-Track

元期: Sep 13, 2026, 17:55 UTC

1 54576U 22151MC  26256.74712422  .00023821  00000-0  20261-2 0  9997
2 54576  98.6184 337.9328 0035748 334.3257  25.6186 14.97333152132365

AllMySatでCZ-6A DEBをリアルタイム追跡

Download on the App Store